This demonstration page uses our WeatherBlox Daily Observations layout. Learn more.

Left ArrowRight Arrow

Hourly Observations for February 1, 2019

Temp ( °F °C ) Dew Point ( °F °C ) Humidity (%) Winds ( mph kmh ) Pressure ( in mb ) Visibility ( mi km ) Precip ( " mm )
12:53 am 00:53 Clear 30 -1.1 26 -3.3 85 85 Calm 30.33 1027 10 16 0.00 0.00
1:53 am 01:53 Clear 31 -0.6 27 -2.8 85 85 Calm 30.33 1027 10 16 0.00 0.00
2:53 am 02:53 Clear 29 -1.7 26 -3.3 89 89 Calm 30.33 1027 10 16 0.00 0.00
3:53 am 03:53 Clear 29 -1.7 27 -2.8 92 92 Calm 30.33 1027 10 16 0.00 0.00
4:53 am 04:53 Clear 29 -1.7 27 -2.8 92 92 Calm 30.32 1027 10 16 0.00 0.00
5:53 am 05:53 Clear 28 -2.2 26 -3.3 92 92 Calm 30.33 1027 10 16 0.00 0.00
6:53 am 06:53 Clear 28 -2.2 25 -3.9 88 88 Calm 30.33 1027 10 16 0.00 0.00
7:53 am 07:53 Sunny 28 -2.2 27 -2.8 96 96 Calm 30.33 1027 10 16 0.00 0.00
8:53 am 08:53 Sunny 33 0.6 30 -1.1 89 89 Calm 30.36 1028 10 16 0.00 0.00
9:53 am 09:53 Sunny 42 5.6 29 -1.7 60 60 NE 3 6 30.37 1028 10 16 0.00 0.00
10:53 am 10:53 Sunny 47 8.3 27 -2.8 46 46 E 3 6 30.36 1028 10 16 0.00 0.00
11:53 am 11:53 Sunny 52 11.1 26 -3.3 37 37 Calm 30.35 1028 10 16 0.00 0.00
12:53 pm 12:53 Sunny 54 12.2 23 -5 30 30 Calm 30.32 1027 10 16 0.00 0.00
1:53 pm 13:53 Sunny 56 13.3 26 -3.3 32 32 SSW 3 6 30.29 1026 10 16 0.00 0.00
2:53 pm 14:53 Sunny 59 15 31 -0.6 35 35 VRB 6 9 30.27 1025 10 16 0.00 0.00
3:53 pm 15:53 Sunny 61 16.1 30 -1.1 31 31 SSW 9 15 30.27 1025 10 16 0.00 0.00
4:53 pm 16:53 Sunny 60 15.6 30 -1.1 32 32 SSW 6 9 30.27 1025 10 16 0.00 0.00
5:53 pm 17:53 Sunny 59 15 31 -0.6 35 35 Calm 30.28 1025 10 16 0.00 0.00
6:53 pm 18:53 Clear 52 11.1 34 1.1 50 50 Calm 30.29 1026 10 16 0.00 0.00
7:53 pm 19:53 Clear 47 8.3 34 1.1 61 61 Calm 30.30 1026 10 16 0.00 0.00
8:53 pm 20:53 Clear 45 7.2 35 1.7 68 68 Calm 30.31 1026 10 16 0.00 0.00
9:53 pm 21:53 Clear 41 5 34 1.1 76 76 Calm 30.31 1026 10 16 0.00 0.00
10:53 pm 22:53 Clear 41 5 34 1.1 76 76 Calm 30.30 1026 10 16 0.00 0.00
11:53 pm 23:53 Clear 39 3.9 34 1.1 82 82 Calm 30.30 1026 10 16 0.00 0.00

Powered by AerisWeather